Regional Weather Roundup
Issued by NWS

Home | Current Version | Previous Version | Graphics & Text | Print | Product List | Glossary On
Versions: 1 2 3 4 5 6 7 8 9 10 11 12 13 14 15 16 17 18 19 20 21 22 23 24 25 26 27 28 29 30 31 32 33 34 35 36 37 38 39 40 41 42 43 44 45 46 47 48 49 50
000
ASUS43 KFSD 222210
RWRSD

WEATHER ROUNDUP FOR SOUTH DAKOTA
NATIONAL WEATHER SERVICE SIOUX FALLS SD
500 PM CDT SUN OCT 22 2017

NOTE: "FAIR" INDICATES FEW OR NO CLOUDS BELOW 12,000 FEET WITH NO
SIGNIFICANT WEATHER AND/OR OBSTRUCTIONS TO VISIBILITY.


SDZ001>005-009-010-012>017-222300-
NORTHWEST AND NORTH CENTRAL SOUTH DAKOTA

CITY           SKY/WX    TMP DP  RH WIND       PRES   REMARKS
BUFFALO          N/A     68  32  26 W25G37    29.69S
MOBRIDGE       CLOUDY    67  32  27 S10       29.73F
$$

SDZ012>016-024>037-041>051-057-063-072>074-222300-
SOUTHWEST AND SOUTH CENTRAL SOUTH DAKOTA

CITY           SKY/WX    TMP DP  RH WIND       PRES   REMARKS
RAPID CTY ARPT CLOUDY    69  29  22 SW12      29.84F
PIERRE         PTSUNNY   70  28  21 SW13      29.80F
CUSTER         CLOUDY    58  26  29 W13G28    29.94F
PHILIP         SUNNY     72  31  22 SW17      29.81F
PINE RIDGE     CLOUDY    68  29  23 W15G23    29.90F
SPEARFISH      FAIR      66  30  26 SW21      29.85R
WINNER         FAIR      70  32  24 W10       29.86F
$$

SDZ004>011-016>023-039-040-222300-
NORTHEAST SOUTH DAKOTA

CITY           SKY/WX    TMP DP  RH WIND       PRES   REMARKS
ABERDEEN       CLOUDY    66  23  19 SW14      29.78F
WATERTOWN      SUNNY     61  30  31 SW20G25   29.83F
BROOKINGS      SUNNY     64  30  27 SW17      29.88F
SISSETON         N/A     64  31  28 SW14      29.79F
$$

SDZ017-020-022-023-036>040-048>070-222300-
SOUTHEAST SOUTH DAKOTA

CITY           SKY/WX    TMP DP  RH WIND       PRES   REMARKS
SIOUX FALLS    MOSUNNY   67  30  25 SW14      29.90F
HURON          SUNNY     65  31  28 SW10      29.84F
CHAMBERLAIN    SUNNY     69  30  23 SW10      29.85F
MITCHELL       SUNNY     69  28  21 SW13      29.87F
YANKTON        SUNNY     68  28  22 SW15      29.91F
$$

ABBREVIATIONS USED IN REMARKS
   TC - TEMPERATURE IN CELSIUS
  WCI - WIND CHILL INDEX
   HX - HEAT INDEX
  VSB - VISIBILITY




USA.gov is the U.S. government's official web portal to all federal, state and local government web resources and services.